CAPE1
1 31130U 07012P 13359.88383732 .00000746 00000-0 17626-3 0 9375
2 31130 097.9163 341.5128 0099895 191.0436 168.8569 14.53893195354624
COMPASS
1 32787U 08021E 13360.12206092 .00002673 00000-0 30748-3 0 8142
2 32787 097.7284 053.5428 0014958 037.4242 322.8012 14.86515477306467
AAUSAT2
1 32788U 08021F 13360.80627246 .00003291 00000-0 37207-3 0 7992
2 32788 097.7293 055.0063 0014360 034.7027 325.5123 14.87080285306613
DO-64
1 32789U 08021G 13360.18925543 .00006576 00000-0 67717-3 0 8343
2 32789 097.7465 059.4334 0013413 027.1521 039.8925 14.90536226306707
CO-66
1 32791U 08021J 13360.82421966 .00002555 00000-0 30176-3 0 7944
2 32791 097.7282 053.3116 0015528 037.5171 016.3397 14.85459896306460
RS-30
1 32953U 08025A 13360.82779304 .00000010 00000-0 00000 0 0 5019
2 32953 082.5037 308.3895 0018498 169.3241 190.8250 12.43041072253842
METEOR-M
1 35865U 09049A 13360.75433084 .00000006 00000-0 21991-4 0 1103
2 35865 098.5762 048.1841 0001798 224.9502 135.1529 14.21903148221836
RS-38
1 35869U 09049E 13360.75339603 .00000064 00000-0 47931-4 0 610
2 35869 098.5698 048.0381 0003901 233.4688 126.6127 14.22167859221868
JUGNU
1 37839U 11058B 13359.86224602 .00000420 00000-0 82659-4 0 5295
2 37839 019.9601 225.3421 0018958 235.0698 218.9663 14.12225100114022
SRMSAT
1 37841U 11058D 13360.05241162 .00000395 00000-0 72819-4 0 5288
2 37841 019.9708 240.0498 0011868 182.7814 321.2038 14.10282560113891
RAX-2
1 37853U 11061D 13360.12583263 .00005164 00000-0 37786-3 0 6805
2 37853 101.7042 302.8952 0226975 196.1249 287.6477 14.86089412116928
AUBIESAT
1 37854U 11061E 13360.84230843 .00004934 00000-0 35288-3 0 6650
2 37854 101.7086 305.2622 0225988 192.0707 237.7789 14.87054584117066
HRBE
1 37855U 11061F 13360.82291359 .00004449 00000-0 32180-3 0 6747
2 37855 101.7090 304.8260 0227423 192.9396 198.8992 14.86581895117044
RS-39
1 38051U 11062C 13360.72650463 .00030644 00000-0 74416-3 0 1010
2 38051 051.6350 356.8952 0006541 246.1919 099.8792 15.40724548107366
E-STAR
1 38079U 12006C 13360.87902956 .00089204 45694-5 14460-2 0 6872
2 38079 069.4686 072.7277 0518677 238.3289 243.7015 14.71164191 97811
GOLIAT
1 38085U 12006J 13360.72787836 .00088304 45053-5 14541-2 0 6612
2 38085 069.4748 077.1649 0532983 240.4906 114.2105 14.67837155 97684
HORYU-2
1 38340U 12025D 13360.44163728 .00002028 00000-0 33413-3 0 7117
2 38340 098.2413 310.0714 0013008 008.7267 351.4147 14.71595669 86388
RS-40
1 38736U 12041D 13360.62399892 .00000010 00000-0 00000 0 0 4609
2 38736 082.4798 035.1408 0020170 266.1924 093.6859 12.42875152 64151
PROITERES
1 38756U 12047B 13360.78922920 .00001053 00000-0 16607-3 0 4273
2 38756 098.2391 081.2457 0011815 208.1578 151.8979 14.74543171 69773
BEESAT-3
1 39134U 13015E 13359.88461023 .00008181 00000-0 62802-3 0 4571
2 39134 064.8795 325.8296 0010506 332.2216 027.8123 15.02303627 37605
BEESAT-2
1 39136U 13015G 13360.29820013 .00006596 00000-0 51221-3 0 4456
2 39136 064.8786 324.6416 0010245 331.6247 028.4312 15.02061115 37661
CAPE-1
1 39380U 13064A 13360.54184986 .00004579 00000-0 20935-3 0 498
2 39380 040.5181 037.9310 0004522 214.6996 145.3532 15.21214882 5560
TRLBLAZER
1 39382U 13064C 13360.18849218 .00030808 00000-0 12692-2 0 513
2 39382 040.5057 039.6021 0001850 178.7581 181.2937 15.23435829 5503
TECHEDST3
1 39415U 98067DD 13360.74493480 .00387053 00000-0 29757-2 0 690
2 39415 051.6447 231.9368 0008134 206.3485 264.8930 15.70265586 5672
ZACUBE-1
1 39417U 13066B 13360.63607761 .00001988 00000-0 27787-3 0 1115
2 39417 097.7957 072.1178 0064924 082.7712 278.0852 14.77262226 5217
TRITON-1
1 39427U 13066M 13360.18744354 .00001614 00000-0 28079-3 0 295
2 39427 097.7860 070.9872 0121084 080.6239 280.8528 14.64684783 5066
DELFIN3XT
1 39428U 13066N 13359.90648819 .00002705 00000-0 48247-3 0 317
2 39428 097.7871 070.5852 0132459 081.4098 280.1961 14.62161864 5009
GOMX-1
1 39430U 13066Q 13360.73548014 .00001377 00000-0 27155-3 0 790
2 39430 097.7814 071.0379 0159501 078.9609 282.9455 14.56144096 5116
$50SAT
1 39436U 13066W 13360.74321318 .00013041 00000-0 15373-2 0 332
2 39436 097.7983 072.6000 0030721 096.3968 264.0383 14.84543303 5241
PUCPSAT-1
1 39442U 13066AC 13359.78328743 .00003375 00000-0 39878-3 0 224
2 39442 097.8008 071.7045 0037129 094.2825 266.2611 14.84827221 3884
